Regional Weather Roundup
Issued by NWS

Home | Current Version | Previous Version | Graphics & Text | Print | Product List | Glossary On
Versions: 1 2 3 4 5 6 7 8 9 10 11 12 13 14 15 16 17 18 19 20 21 22 23 24 25 26 27 28 29 30 31 32 33 34 35 36 37 38 39 40 41 42 43 44 45 46 47 48 49 50
387
ASUS45 KBOU 162210
RWRCO

WEATHER ROUNDUP FOR COLORADO
NATIONAL WEATHER SERVICE DENVER/BOULDER CO
300 PM MST SAT DEC 16 2017

NOTE: "FAIR" INDICATES FEW OR NO CLOUDS BELOW 12000 FEET WITH NO
SIGNIFICANT WEATHER AND/OR OBSTRUCTIONS TO VISIBILITY.

COZ001>005-013-030-031-162300-
...NORTHWEST COLORADO...

CITY           SKY/WX    TMP DP  RH WIND       PRES   REMARKS
CRAIG          FAIR      31  15  52 CALM      29.75F
HAYDEN         FAIR      32  15  49 W5        29.76F WCI  27
MEEKER         FAIR      43   5  20 W3        29.73F
RABBIT EARS PA MOCLDY    28  -6  22 W10G23    29.78S WCI  19
STEAMBOAT SPGS FAIR      31  15  51 CALM      29.75S
WALDEN         PTSUNNY   32  10  40 S5        29.76S WCI  27
$$

COZ006>008-011-162300-
...WEST CENTRAL VALLEYS...

CITY           SKY/WX    TMP DP  RH WIND       PRES   REMARKS
GRAND JUNCTION FAIR      39  10  30 W5        29.76S
MONTROSE       FAIR      40   7  25 NW6       29.76S
EAGLE          FAIR      28  12  51 CALM      29.81S
RIFLE          FAIR      37  10  32 CALM      29.75F
DELTA          FAIR      44   5  19 SW5       29.75S
NUCLA          CLOUDY    43  -4  14 CALM      29.79F
$$

COZ017>023-064>068-162300-
...SOUTHWEST COLORADO...

CITY           SKY/WX    TMP DP  RH WIND       PRES   REMARKS
DURANGO        FAIR      47  10  22 SW5       29.75S
CORTEZ         FAIR      44  12  27 VRB5      29.77S
PAGOSA SPRINGS FAIR      46   0  15 SW6       29.76S
TELLURIDE      FAIR      41  -9  11 W10       29.80S
WOLF CREEK PAS FAIR      30   5  34 S14       29.89F WCI  20
$$

COZ009-010-012-014-032>034-037-058>063-162300-
...CENTRAL COLORADO...

CITY           SKY/WX    TMP DP  RH WIND       PRES   REMARKS
ASPEN          FAIR      35  13  40 CALM      29.75F
BUENA VISTA    FAIR      44  10  25 CALM      29.74S
COPPER MTN     NOT AVBL
BERTHOUD PASS  FAIR      23  12  63 S21       29.86S WCI   8
COTTONWOOD PAS FAIR      43   3  19 CALM      29.80S
GUNNISON       FAIR      28   8  43 CALM      29.80S
KREMMLING      FAIR      30  12  47 E3        29.79S
LEADVILLE      FAIR      35   3  26 W5        29.77S WCI  31
MONARCH PASS   FAIR      28   3  34 E13       29.94S WCI  18
SALIDA         FAIR      49   5  16 CALM      29.80S
SUNLIGHT       CLOUDY    30  -2  24 SW10G20   29.84S WCI  21
WILKERSON PASS FAIR      32   5  32 S8        29.88R WCI  25
$$

COZ069>075-162300-
...SAN LUIS VALLEY/SANGRE DE CRISTO MOUNTAINS...

CITY           SKY/WX    TMP DP  RH WIND       PRES   REMARKS
ALAMOSA        FAIR      41  11  29 SW5       29.72F
DEL NORTE      FAIR      39  10  30 E5        29.74F
LA VETA PASS   FAIR      32   9  37 N24G31      N/A  WCI  19
SAGUACHE       FAIR      41   5  22 SE5       29.75S
$$

COZ035-036-038>040-162300-
...NORTHERN COLORADO FRONT RANGE...

CITY           SKY/WX    TMP DP  RH WIND       PRES   REMARKS
DENVER INTL AP PTSUNNY   48  12  23 E12       29.79R
DMNS CITY PARK NOT AVBL
AURORA         PTSUNNY   48  12  23 E10       29.79R
FRONT RANGE AP PTSUNNY   48  12  23 NE9G17    29.80R
ERIE MUNI ARPT FAIR      48   9  20 CALM      29.84S
BOULDER MUN AP FAIR      46  12  25 N3        29.79S
CENTENNIAL     PTSUNNY   46  13  26 VRB6      29.79R
BROOMFIELD     PTSUNNY   48  10  21 NW8       29.80R
FORT COLLINS   FAIR      47  15  27 N3        29.80S
LONGMONT       FAIR      49  15  25 N6        29.81S
$$

COZ041-046-047-076>085-087-088-162300-
...PIKES PEAK/PALMER DIVIDE AND SOUTHERN FOOTHILLS...

CITY           SKY/WX    TMP DP  RH WIND       PRES   REMARKS
COLO. SPRINGS  PTSUNNY   49   7  18 N16       29.77R
A. F. ACADEMY  FAIR      46   4  17 N12       29.77R
SCHRIEVER AFB  FAIR      46   6  19 NE17G23   29.76R
CHEYENNE MTN   FAIR      42   2  18 NW12      29.73R
ELLICOTT         N/A    N/A N/A N/A NE18      29.75R
FALCON         FAIR      44   5  19 N13G21    29.80R
FORT CARSON    FAIR      52   4  14 N15       29.75R
LIMON          FAIR      46  13  26 NE15      29.77R
MONUMENT HILL  FAIR      37  10  32 NE7       29.82R
CANON CITY     FAIR      57   5  12 E17G25    29.72R
WALSENBURG     NOT AVBL
TRINIDAD       FAIR      54  13  19 N15       29.71R
$$

COZ042>045-048>051-090-091-162300-
...NORTHEAST COLORADO...

CITY           SKY/WX    TMP DP  RH WIND       PRES   REMARKS
GREELEY ARPT   FAIR      47  16  29 E10       29.81R
AKRON          FAIR      45  22  40 E16G26    29.80R
BURLINGTON     FAIR      50  18  28 NE21G30   29.76R
WRAY           FAIR      48  27  43 NE21G28   29.80R
YUMA           FAIR      45  25  45 NE18G28   29.79R
STERLING       FAIR      45  27  49 NE12G17   29.81R
HOLYOKE        FAIR      46  28  49 NE18      29.83R
FORT MORGAN    FAIR      45  20  36 E14       29.81S
$$

COZ086-089-092>099-162300-
...SOUTHEAST COLORADO...

CITY           SKY/WX    TMP DP  RH WIND       PRES   REMARKS
PUEBLO         FAIR      58   4  11 E14       29.71R
LA JUNTA       FAIR      59  10  14 E13       29.68R
LAMAR          FAIR      60  12  15 E12G18    29.66R
SPRINGFIELD      N/A     55  15  20 S16       29.65R
$$




USA.gov is the U.S. government's official web portal to all federal, state and local government web resources and services.